Location: Le Gr�zie
(43.6000°N, 13.5000°E)
Time: 10:44:02
(UTC+00:00)

Cosmos 2333 Rocket - Pass Details

Date: 09 April 2020
Orbit: 840 x 861 km, 70.8° (Epoch: 03 June)

Event Time Altitude Azimuth Distance (km) Brightness Sun altitude
Rises 23:37:10 0° 338° (NNW) 3,406 6.0 -37.9°
Reaches altitude 10° 23:39:41 10° 342° (NNW) 2,468 5.2 -37.8°
Enters shadow 23:42:32 29° 356° (N) 1,492 3.9 -37.7°
